TimePDT,TemperatureF,Dew PointF,Humidity,Sea Level PressureIn,VisibilityMPH,Wind Direction,Wind SpeedMPH,Gust SpeedMPH,PrecipitationIn,Events,Conditions,WindDirDegrees,DateUTC
12:53 AM,57.0,48.9,74,30.13,10.0,West,11.5,-,N/A,,Clear,270,2013-08-20 07:53:00
1:53 AM,55.9,48.0,75,30.13,10.0,West,9.2,-,N/A,,Clear,260,2013-08-20 08:53:00
2:53 AM,53.1,46.9,80,30.14,10.0,WNW,9.2,-,N/A,,Clear,300,2013-08-20 09:53:00
3:53 AM,52.0,46.9,83,30.14,10.0,NW,6.9,-,N/A,,Clear,320,2013-08-20 10:53:00
4:53 AM,53.1,48.0,83,30.14,10.0,NW,8.1,-,N/A,,Clear,310,2013-08-20 11:53:00
5:33 AM,51.1,50.0,96,30.16,5.0,NW,8.1,-,N/A,,Scattered Clouds,310,2013-08-20 12:33:00
5:37 AM,51.1,50.0,96,30.16,2.5,WNW,8.1,-,N/A,,Mostly Cloudy,300,2013-08-20 12:37:00
5:42 AM,52.0,50.0,93,30.16,1.0,WNW,8.1,-,N/A,,Mist,300,2013-08-20 12:42:00
5:45 AM,52.0,50.0,93,30.16,0.8,WNW,8.1,-,N/A,,Mist,290,2013-08-20 12:45:00
5:53 AM,51.1,50.0,96,30.17,0.5,WNW,9.2,-,N/A,Fog,Fog,300,2013-08-20 12:53:00
6:05 AM,51.1,50.0,96,30.16,0.5,NW,9.2,-,N/A,Fog,Fog,310,2013-08-20 13:05:00
6:13 AM,51.1,50.0,96,30.16,0.2,WNW,8.1,-,N/A,Fog,Fog,290,2013-08-20 13:13:00
6:28 AM,50.0,48.9,96,30.17,1.0,West,5.8,-,N/A,,Mist,260,2013-08-20 13:28:00
6:35 AM,50.0,48.9,96,30.17,10.0,SW,3.5,-,N/A,,Scattered Clouds,230,2013-08-20 13:35:00
6:53 AM,48.9,48.0,97,30.17,10.0,Calm,Calm,-,N/A,,Clear,0,2013-08-20 13:53:00
7:53 AM,55.9,51.1,84,30.18,10.0,West,6.9,-,N/A,,Clear,270,2013-08-20 14:53:00
8:53 AM,61.0,50.0,67,30.19,10.0,Variable,4.6,-,N/A,,Clear,0,2013-08-20 15:53:00
9:53 AM,62.1,51.1,67,30.19,10.0,NNW,4.6,-,N/A,,Clear,340,2013-08-20 16:53:00
10:53 AM,61.0,51.1,70,30.19,10.0,NNW,8.1,-,N/A,,Clear,330,2013-08-20 17:53:00
11:53 AM,63.0,51.1,65,30.19,10.0,NNE,4.6,-,N/A,,Clear,20,2013-08-20 18:53:00
12:53 PM,66.0,51.1,59,30.18,10.0,North,8.1,-,N/A,,Clear,10,2013-08-20 19:53:00
1:53 PM,66.0,51.1,59,30.18,10.0,North,4.6,-,N/A,,Clear,360,2013-08-20 20:53:00
2:53 PM,68.0,50.0,52,30.17,10.0,Variable,5.8,-,N/A,,Clear,0,2013-08-20 21:53:00
3:53 PM,66.9,51.1,57,30.16,10.0,North,5.8,-,N/A,,Clear,360,2013-08-20 22:53:00
4:53 PM,66.9,51.1,57,30.14,10.0,North,5.8,-,N/A,,Clear,10,2013-08-20 23:53:00
5:53 PM,64.0,52.0,65,30.14,10.0,NW,6.9,-,N/A,,Clear,320,2013-08-21 00:53:00
6:53 PM,60.1,50.0,69,30.13,10.0,NW,6.9,-,N/A,,Clear,310,2013-08-21 01:53:00
7:53 PM,59.0,50.0,72,30.13,10.0,West,3.5,-,N/A,,Clear,280,2013-08-21 02:53:00
8:53 PM,55.0,48.0,77,30.13,10.0,West,3.5,-,N/A,,Clear,270,2013-08-21 03:53:00
9:53 PM,54.0,48.0,80,30.13,10.0,SW,6.9,-,N/A,,Clear,230,2013-08-21 04:53:00
10:53 PM,59.0,48.9,69,30.12,10.0,WSW,10.4,-,N/A,,Clear,250,2013-08-21 05:53:00
11:53 PM,57.9,48.0,70,30.11,10.0,West,8.1,-,N/A,,Clear,260,2013-08-21 06:53:00